Location: ?????????
(41.2393°N, 22.9479°E)
Time: 12:39:11
(UTC+00:00)

COSMOS 2406 - Pass Details

Date: 17 November 2025
Orbit: 845 x 858 km, 71.0° (Epoch: 06 December)

Event Time Altitude Azimuth Distance (km) Brightness Sun altitude
Rises 16:37:49 0° 342° (NNW) 3,415 6.4 -17.0°
Reaches altitude 10° 16:40:28 10° 351° (N) 2,477 5.6 -17.5°
Maximum altitude 16:45:43 37° 58° (ENE) 1,298 3.7 -18.5°
Enters shadow 16:47:01 33° 87° (E) 1,401 3.8 -18.7°
